Terminal Aerodrome Forecast
Issued by NWS Austin/San Antonio, TX

Home | Current Version | Previous Version | Text Only | Print | Product List | Glossary On
Versions: 1 2 3 4 5 6 7 8 9 10 11 12 13 14 15 16 17 18 19 20 21
000
FTUS44 KEWX 030500
TAFDRT
TAF
KDRT 030520Z 0306/0406 12012G22KT P6SM FEW070 SCT200
     FM031000 12012KT P6SM BKN025
     FM031700 13014G24KT P6SM BKN070
     FM040300 13010KT P6SM SCT040 SCT200=

USA.gov is the U.S. government's official web portal to all federal, state and local government web resources and services.